This is the latest recevied weather packets stored in our database for station/object W1HS. If no packets are shown the sender has not sent any weather packets the latest 1 day(s).
| Time | Temp. | Humidity | Pressure | Rain* | Wind** | Luminosity | Snow |
|---|---|---|---|---|---|---|---|
| 1778087388 | 15° C | 92% | 986.7 hPa | 1.78 mm | - | 77 W/m² | - |
| 1778087085 | 15° C | 91% | 986.7 hPa | 1.27 mm | - | 88 W/m² | - |
| 1778086886 | 15° C | 91% | 986.6 hPa | 1.27 mm | - | 91 W/m² | - |
| 1778086430 | 15.56° C | 90% | 986.6 hPa | 1.02 mm | - | 90 W/m² | - |
| 1778086317 | 15.56° C | 90% | 986.6 hPa | 1.02 mm | - | 86 W/m² | - |
| 1778085440 | 15.56° C | 89% | 986.8 hPa | 0.51 mm | - | 131 W/m² | - |
| 1778084840 | 15.56° C | 88% | 986.9 hPa | 0.25 mm | - | 146 W/m² | - |
| 1778083640 | 16.11° C | 85% | 986.9 hPa | 0 mm | - | 208 W/m² | - |
| 1778082440 | 16.11° C | 85% | 987.3 hPa | 0 mm | - | 253 W/m² | - |
| 1778080162 | 16.11° C | 82% | 988.1 hPa | 0 mm | - | 133 W/m² | - |
| 1778079560 | 16.11° C | 81% | 988.1 hPa | 0 mm | - | 134 W/m² | - |
| 1778077760 | 16.11° C | 80% | 987.8 hPa | 0 mm | - | 135 W/m² | - |
| 1778077160 | 16.11° C | 80% | 987.8 hPa | 0 mm | - | 183 W/m² | - |
| 1778076558 | 16.11° C | 81% | 987.9 hPa | 0 mm | - | 190 W/m² | - |
| 1778071762 | 14.44° C | 85% | 988.4 hPa | 0 mm | - | 163 W/m² | - |
| 1778070259 | 13.89° C | 85% | 988.1 hPa | 0 mm | - | 90 W/m² | - |
| 1778069659 | 13.89° C | 85% | 988 hPa | 0 mm | - | 53 W/m² | - |
| 1778068459 | 13.89° C | 85% | 988.1 hPa | 0 mm | - | 70 W/m² | - |
| 1778066434 | 13.89° C | 85% | 988.2 hPa | 0 mm | - | 53 W/m² | - |
| 1778065892 | 13.89° C | 85% | 988.2 hPa | 0 mm | - | 76 W/m² | - |
| 1778063660 | 13.33° C | 85% | 988.2 hPa | 0 mm | - | 67 W/m² | - |
| 1778063125 | 13.33° C | 84% | 988.2 hPa | 0 mm | - | 37 W/m² | - |
| 1778062731 | 13.33° C | 84% | 988.3 hPa | 0 mm | - | 25 W/m² | - |
| 1778061752 | 13.33° C | 82% | 988.3 hPa | 0 mm | - | 18 W/m² | - |
| 1778060119 | 13.89° C | 82% | 988.4 hPa | 0 mm | - | 0 W/m² | - |
* Rain latest hour (hover to see other rain measurements)
** Current wind speed in m/s (hover to see current wind gust speed)